sat.trackr.live / text

‹ back to catalog

STARLINK-36828

NORAD 67857 · 2026-034H

PAYLOAD ACTIVE UNKNOWN

§ Identity

Operator
Country
US
Launch date
2026-02-20
Launch site
AFETR
Launch vehicle
Mass (kg)
RCS (m²)

Purposes: comms

External: N2YO · Heavens-Above · Gunter

§ Orbital elements

Epoch: 2026-05-25T04:49:25.840992Z

Period
94.10 min
Inclination
53.1569°
Eccentricity
0.0001208
Mean motion
15.30205685 rev/d
Perigee alt
474.4 km
Apogee alt
476.0 km
Semi-major
6,853.3 km
B*
5.7703e-4
RAAN
208.5868°
Arg perigee
87.0584°
Mean anomaly
273.0555°
Rev number
1,575

§ Raw data

STARLINK-368281 67857U 26034H   26145.20099353  .00016773  00000+0  57703-3 0  99952 67857  53.1569 208.5868 0001208  87.0584 273.0555 15.30205685 15754

JSON: /api/v1/satellites/67857 · /tle

For live sub-satellite position, see the globe view (requires WebGL).

§ Visibility from observer

Set your observer location to see the next 7 days of passes ≥ 10°. The values pass through the URL so the page stays shareable.

No JS? Fill the form by hand. The geolocation button needs JavaScript.